Location: Be?i?
(36.9044°N, 30.1006°E)
Time: 13:11:13
(UTC+00:00)

Cosmos 1634 Rocket - Pass Details

Date: 05 August 2024
Orbit: 960 x 991 km, 82.9° (Epoch: 09 September)

Event Time Altitude Azimuth Distance (km) Brightness Sun altitude
Exits shadow 23:26:27 59° 349° (N) 1,104 4.3 -33.2°
Drops below altitude 10° 23:31:25 10° 4° (N) 2,707 7.1 -32.8°
Sets 23:33:57 0° 6° (N) 3,660 8.0 -32.6°
